Location: Foggia
(41.4500°N, 15.5670°E)
Time: 10:39:10
(UTC+01:00)

ISS - Visible Passes

Search period start: 17 January 2019 00:00
Search period end: 27 January 2019 00:00
Orbit: 404 x 407 km, 51.6° (Epoch: 17 January)

Date Brightness Start Highest point End Pass type
(mag) Time Alt. Az. Time Alt. Az. Time Alt. Az.
20 Jan -0.5 19:33:38 10° SW 19:33:40 10° SW 19:33:40 10° SW visible
21 Jan -2.5 18:42:04 10° SSW 18:44:18 29° SSE 18:44:18 29° SSE visible
22 Jan -2.0 17:50:59 10° S 17:53:16 18° SE 17:54:51 13° E visible
22 Jan -1.2 19:26:16 10° WSW 19:27:33 21° WSW 19:27:33 21° WSW visible
23 Jan -4.0 18:34:14 10° SW 18:37:30 83° SE 18:38:01 60° ENE visible
24 Jan -3.2 17:42:29 10° SSW 17:45:35 42° SE 17:48:24 12° ENE visible
24 Jan -1.5 19:19:16 10° W 19:21:05 23° WNW 19:21:05 23° WNW visible
25 Jan -3.0 18:26:55 10° WSW 18:30:03 43° NNW 18:31:23 28° NNE visible
26 Jan -3.7 17:34:45 10° WSW 17:38:01 78° NW 17:41:18 10° NE visible
26 Jan -1.4 19:12:30 10° WNW 19:14:18 18° NNW 19:14:18 18° NNW visible
